C/2007 E1 (Garradd)

Epoch 2007 May 20.0 TT = JDT 2454240.5  

T 2007 May 23.83055 TT                                  Nakano

q   1.2858626            (2000.0)            P               Q

z  +0.0153839      Peri.    7.10232     -0.83630442     +0.54656958

 +/-0.0000008      Node   153.82698     +0.49809710     +0.72458718

e   0.9802185      Incl.  174.39397     +0.22911611     +0.41980366

a  65.00 AU         P     524.1 years

From 975 observations 2007 Mar. 13-2007 Dec. 27, mean residual 0".60.

   The comet has passed 2.39 AU from Jupiter on 2006 Sept. 30 and 3.96 AU

   from Uranus on 1998 Feb. 8 UT.  Also the comet will pass 2.07 AU from

   Jupiter in 2494, 3.80 AU from Saturn in 2492 and 1.79 AU from Neptune

   in 2020 Nov..

Residuals in seconds of arc 

2007/                     070410 A11  0.1+  0.5-    070429 A33  0.8-  0.6+  

070313 E12  0.3+  0.3-    070410 A11  0.2-  0.3+    070430 349  0.0   0.2-  

070313 E12  0.1+  0.0     070410 A11  0.3+  0.2+    070430 349  0.0   0.3-  

070313 E12  0.1+  0.1-    070410 B30  1.3+  0.3+    070430 461  0.3-  0.1+  

070313 E12  0.0   0.0     070410 B30  0.3+  0.5-    070430 461  0.7-  0.4-  

070313 E12  0.4-  0.1-    070410 B30  1.7+  0.8-    070430 461  0.2-  0.1-  

070314 473  0.2-  1.2+    070410 B30  0.6-  0.1+    070430 461  0.1-  0.1+  

070314 473  0.2-  1.1+    070410 B30  0.2-  0.4+    070430 213  0.3-  0.2-  

070314 595  0.3-  0.1+    070410 B30  0.1-  0.6+    070430 461  0.2-  0.2-  

070314 595  0.3-  0.4+    070410 B30  0.8-  1.1+    070430 213  0.2-  0.4-  

070314 473  0.1+  0.7+    070411 379  0.9+  0.4-    070430 213  0.5-  0.2-  

070314 595  0.3-  0.2+    070411 379  0.3+  0.3-    070430 461  0.0   0.0   

070314 J95  0.3-  0.2+    070411 379  0.2+  0.2+    070430 A33  0.7+  0.5-  

070314 473  0.1-  0.9+    070411 379  0.9+  0.0     070430 A33  1.6-  0.0   

070314 J95  0.4-  0.4+    070411 379  0.5+  0.1+    070502 585  0.6+  0.8-  

070314 J95  0.1-  0.1+    070411 379  0.2+  0.1-    070502 585 (2.5+  1.8-) 

070314 473  0.2-  0.5-    070411 372  0.2-  0.4+    070502 585  0.7+  1.4-  

070314 J95  0.1-  0.5+    070411 372  0.0   1.4+    070502 585  1.5+  0.8+  

070314 J95  0.1-  0.1+    070411 372  0.7+  0.4+    070502 585  1.4-  0.7-  

070314 734  0.3-  0.6-    070411 A11  0.1-  0.4+    070502 585 (2.1+  1.1+) 

070314 734  0.1+  0.5-    070411 A11  0.7+  0.3-    070502 585 (0.1-  2.9+) 

070314 734  0.4-  0.1+    070411 J59  0.8-  0.2-    070502 585  0.4-  0.8-  

070314 734  0.9-  0.2-    070411 A11  0.3-  0.2+    070503 349  0.6+  0.5-  

070314 734  0.5+  1.4+    070411 J59  0.3-  0.2-    070503 349  0.6+  0.6-  

070314 673  0.1-  0.3-    070411 A11  0.2-  0.1+    070503 349  0.5+  0.5-  

070314 H06  0.0   0.1+    070411 A11  0.6+  0.3-    070504 762  0.1+  0.2-  

070314 H06  0.2+  0.2+    070411 A32  0.8+  0.2-    070504 762  0.1+  0.1+  

070314 H06  0.2-  0.1-    070411 A32  0.3-  0.1-    070504 762  0.2-  0.1+  

070314 H06  0.2-  0.1-    070411 A32  0.2+  0.0     070504 762  0.4+  0.0   

070314 H06  0.1+  0.8-    070411 A11  0.4-  0.0     070505 J67  0.0   0.3-  

070314 673  0.2+  0.1-    070411 A32  0.1-  0.1-    070505 J67  0.0   0.3-  

070314 673  0.4+  0.0     070411 A32  0.2+  0.1+    070505 J67  0.2-  0.2-  

070314 673  0.4+  0.1-    070411 A11  0.0   0.3-    070505 J70  1.0-  0.3-  

070314 673  0.4-  0.4+    070411 J59  0.7-  0.5-    070505 J70  0.5-  0.6+  

070314 703  0.2-  0.2+    070412 300  0.6-  0.2-    070505 J70  0.3-  0.3-  

070314 673  0.4+  0.5+    070412 300  0.3-  0.2-    070505 J70  0.8-  0.5+  

070314 703  0.6-  1.0+    070412 300  0.5-  0.2+    070505 J70  0.6-  0.9-  

070314 673  1.9+  0.6+    070412 300  0.4-  0.7-    070505 J70  0.8-  0.1-  

070314 703  0.2-  0.2-    070412 300  1.1+  0.1-    070505 939  0.1-  0.3+  

070314 673  1.4+  0.1+    070412 118  0.0   0.1-    070505 939  0.1+  0.4+  

070314 703  0.3-  0.1+    070412 118  0.0   0.2-    070505 939  0.2+  0.2+  

070314 711  0.2+  0.3-    070412 118  0.1-  0.4-    070505 458  0.6-  0.7+  

070314 711  0.0   0.0     070412 118  0.1-  0.1-    070505 458 (2.6-  2.1+) 

070314 711  0.1-  0.1+    070412 127  0.2+  0.3+    070505 458  0.6+  0.1-  

070314 349  0.5-  0.4+    070412 127  0.2+  0.0     070505 232  0.1+  0.3-  

070314 349  0.3-  0.5+    070412 127  0.2+  0.1+    070505 232  0.2-  0.3+  

070314 349  0.5-  0.5+    070412 127  0.2+  0.1+    070505 232  0.5-  0.0   

070314 D35  0.0   0.1-    070412 127  0.3+  0.2+    070506 213  0.5+  0.3-  

070314 D35  0.4-  0.2+    070412 473  0.2-  0.2-    070506 213  0.3+  0.4-  

070314 D35  0.2-  0.2+    070412 473  0.3-  0.2-    070506 213  0.2-  0.5-  

070315 A77  0.9-  0.8-    070412 473  0.2-  0.2-    070506 J79  0.4+  0.4+  

070315 A77  1.0+  0.1-    070412 473  0.4-  0.1-    070506 J79  0.6+  0.1+  

070315 A77  0.2-  0.0     070412 A97  1.0-  0.8-    070506 J79  0.4+  0.2+  

070315 A77  0.9+  0.1-    070412 A97  0.3-  0.8-    070507 372  0.1-  1.0+  

070315 A77  0.1-  0.5+    070412 A97  0.0   0.2+    070507 372  0.2-  1.4-  

070315 A77  1.4+  1.3+    070412 048 (2.3+  0.9-)   070507 372  1.1-  0.5+  

070315 A77  0.8-  1.3+    070412 048 (2.2+  1.4-)   070507 352  0.2-  0.6-  

070315 A77  1.3-  0.3-    070412 048  1.2+  1.3-    070507 352  0.2-  0.1-  

070315 A77  0.6-  0.4+    070412 048  0.9+  1.3-    070507 352  0.5-  0.3-  

070315 704  0.6-  0.1-    070412 048  1.8+  1.3-    070507 D70  0.3+  0.5+  

070315 704  1.3-  0.2-    070413 850  0.1-  0.3-    070507 D70  0.0   0.5+  

070315 704 (2.1-  0.3-)   070413 850  0.0   0.3-    070507 D70  0.8+  0.3+  

070315 704 (2.4-  0.1-)   070413 850  0.0   0.4-    070507 J76  0.4+  0.3+  

070317 246  0.6+  0.4-    070413 850  0.1-  0.0     070507 J76  0.1-  0.3+  

070317 246  0.5+  0.1+    070413 850  0.1-  0.0     070507 J76  0.4+  0.3+  

070317 246  0.4+  0.3-    070413 048  1.9+  1.7-    070507 J79  0.2+  0.5+  

070317 246  0.5+  0.8-    070413 048 (1.7+  2.0-)   070507 J79  0.4+  0.4+  

070317 246  0.2+  0.8-    070413 048 (1.5+  2.5-)   070507 J79  0.3+  0.4+  

070317 246  0.0   0.5-    070413 048 (2.1+  2.1-)   070507 J70 (5.4-  7.5+) 

070317 246  0.1+  0.4-    070413 048  1.6+  1.5-    070507 J70  0.6-  0.0   

070317 349  0.2+  0.3+    070413 629  0.7-  0.3+    070507 J70 (3.1+  1.1+) 

070317 349  0.1+  0.2+    070413 629  0.1-  0.3-    070507 J70  1.6-  1.9+  

070317 349  0.2+  0.3+    070413 629  0.5-  0.1-    070507 J53  0.1-  0.3-  

070317 349  0.1+  0.2+    070413 629  0.5-  0.6-    070507 J53  0.3+  0.0   

070318 213  0.2+  0.4+    070413 127  0.0   0.2+    070507 J53  0.0   0.1-  

070318 213  0.2+  0.1+    070413 127  0.0   0.3+    070508 619  1.5-  0.0   

070318 213  0.2+  0.2-    070413 127  0.2-  0.6+    070508 473  0.3+  0.5+  

070318 232  1.2-  0.6+    070413 127  0.1+  0.3+    070508 619  0.8-  0.1+  

070318 232  1.0-  0.4+    070413 127  0.1+  0.6+    070508 473  0.3+  0.5+  

070318 232  0.7-  0.4-    070413 A32  0.4-  0.1-    070508 619  0.7-  0.0   

070318 844  0.0   0.2+    070413 A32  0.4-  0.1+    070508 473  0.2+  0.8+  

070318 844  0.2+  0.1-    070413 A32  0.3-  0.2+    070508 J79  0.3+  0.8+  

070318 844  0.2-  0.5+    070413 A32  0.5-  0.2+    070508 J70  0.0   0.8-  

070318 349  0.2+  0.1+    070413 A32  0.5-  0.3+    070508 J79  0.6+  0.7+  

070318 349  0.1+  0.1+    070413 B30  0.0   0.2-    070508 J79  0.4+  0.6+  

070318 349  0.1+  0.2-    070413 B30  0.5-  0.5-    070508 J70  0.2+  0.1+  

070319 E12  0.2-  0.1-    070413 B30  0.4-  0.1+    070508 J70  1.0-  0.6-  

070320 834  0.3+  0.0     070413 B30  1.2-  0.5-    070508 J70  1.0-  0.1-  

070320 834  0.4+  0.2+    070413 B30  0.3+  0.3-    070508 J70  1.1-  0.2-  

070320 834  0.4-  0.0     070413 B30  0.3+  0.3-    070508 J70  0.5-  0.6-  

070320 844  0.2+  0.4+    070413 B30  0.6-  1.1+    070508 J53  0.3+  0.4-  

070320 844  0.2+  0.2+    070413 B30  0.0   1.6+    070508 J53  0.2+  0.6-  

070320 844  0.2-  0.2+    070413 B30  1.1+  1.0+    070508 J53  0.0   0.3-  

070320 844  0.4+  0.1-    070413 B30  1.1-  0.9+    070509 699  0.7-  1.0+  

070320 844  0.0   0.2-    070414 J70  0.4-  0.5+    070509 699  0.9-  1.5+  

070320 704  0.1-  0.4-    070414 J70 (4.3-  0.9+)   070509 699  0.6-  1.7+  

070320 704 (3.2-  1.0+)   070414 J70  0.3+  0.1-    070509 699  0.1+  0.8+  

070320 704  1.1-  0.1+    070414 J70  1.4-  0.0     070509 J70  0.5-  1.3+  

070320 704  1.2-  0.7+    070414 J70  1.7-  0.3+    070509 J79  0.0   0.5+  

070322 467  0.3-  0.1-    070414 J70  0.6-  1.4+    070509 J79  0.0   0.6+  

070322 467  0.1-  0.2-    070414 J70 (2.0-  0.6+)   070509 J79  0.1+  0.8+  

070322 467  0.1-  0.2-    070414 J70 (0.0   2.1+)   070509 J70  1.7-  0.7+  

070322 415  0.4+  0.0     070414 300  0.2-  0.5-    070509 J70  1.8-  0.6+  

070322 415  0.3+  0.2+    070414 300  1.1+  0.4-    070509 J70  1.8-  0.6+  

070322 467  0.4+  1.3+    070414 300  1.6+  0.3-    070510 619  0.4+  0.1-  

070322 467  0.1+  0.1-    070414 300  1.5+  0.5-    070510 619  0.1+  0.4-  

070322 467  0.0   0.1+    070414 415  0.2+  0.6-    070510 619  0.0   0.1-  

070322 300  0.1-  1.0+    070414 D88  0.2+  0.7-    070510 619  0.0   0.1+  

070322 E12  0.3-  0.1+    070414 415  0.0   0.2+    070510 619  0.3-  0.8-  

070322 300  0.4-  0.8+    070414 D88  0.2+  0.3-    070511 762  0.1-  0.1+  

070322 300  0.3+  0.4+    070414 D88  0.4+  0.1-    070511 762  0.1-  0.2-  

070322 300  0.2+  0.2+    070414 355  0.2-  0.7-    070511 762  0.1-  0.2-  

070323 B30  0.2-  0.3-    070414 355  0.3-  0.1-    070511 762  0.2-  0.1-  

070323 B30  1.5+  1.6-    070414 355  0.0   0.8-    070511 762  0.2-  0.1-  

070323 B30  0.9+  0.9-    070414 355  0.2+  0.3+    070511 372  1.2-  0.4+  

070323 B30 (3.1-  1.3+)   070414 349  0.4+  0.0     070511 372  0.2-  0.7-  

070323 415  0.4+  0.1+    070414 349  0.7+  0.3-    070511 300 (2.0-  1.1+) 

070323 415  0.3+  0.1+    070414 347  0.3+  0.5-    070511 300  0.3-  0.2+  

